Starlink 2330

operational
NORAD ID: 47874 Int'l Des: 2021-021 Owner: SPXS Country: US Constellation: starlink
LEOCIRCULARSTARLINK_TYPE

Starlink 2330について

説明を読み込み中...

リアルタイム位置

3D地球を読み込み中...

次回通過

高度履歴

Altitude vs Time

uPlot chart will show altitude changes over time

軌道要素

1 47874U 21021Q 25257.34473225 .00002817 00000-0 20789-3 0 9994
2 47874 53.0542 288.2702 0001339 75.4516 284.6621 15.06409824250380
Epoch: Sep 14, 2025 • Age: 27 hours

現在のステータス

高度 563.8 km
速度 7.58 km/s
衛星直下点 -46.64°S, 70.4°E
打ち上げ日 Mar 14, 2021
運用期間 4.5 years
タイプ internet

技術仕様

分類 Payload
質量 260.00 kg
乾燥質量 248.00 kg
総質量 260.00 kg
長さ 0.20 m
直径 2.80 m
スパン 9.00 m
形状 Box + pan
製造者 SPXS
バスタイプ Starlink
フェーズステータス In Orbit
所有者/国 SPXS/US

大規模コンステレーション

Loading constellations...